Location: Marsån
(66.4167°N, 22.2833°E)
Time: 11:50:55
(UTC+00:00)

Cosmos 2322 Rocket - Pass Details

Date: 24 February 2024
Orbit: 834 x 848 km, 71.0° (Epoch: 15 April)

Event Time Altitude Azimuth Distance (km) Brightness Sun altitude
Rises 19:53:10 0° 317° (NW) 3,410 6.7 -26.1°
Reaches altitude 10° 19:56:25 10° 299° (WNW) 2,468 5.6 -26.3°
Maximum altitude 19:59:58 17° 259° (W) 1,990 4.5 -26.6°
Drops below altitude 10° 20:03:30 10° 220° (SW) 2,453 4.6 -26.8°
Enters shadow 20:03:54 - 217° (SW) 2,551 4.6 -26.9°
